Stafford, VA

2:52 AM EDT on April 21, 2018 (GMT -0400)
Stafford

Weather History for KRMN - November, 2012

Change the Weather History Date:

Sunday, November 4, 2012

  Actual Average (KNYG) Record (KNYG)
Temperature  
Mean Temperature 42 °F -  
Max Temperature 52 °F 58 °F 73 °F (2003)
Min Temperature 32 °F 40 °F 27 °F (2006)
Degree Days  
Heating Degree Days 23    
Moisture  
Dew Point -8 °F    
Average Humidity 19    
Maximum Humidity 57    
Minimum Humidity 4    
Precipitation  
Precipitation 0.00 in - - ()
Sea Level Pressure  
Sea Level Pressure 30.10 in    
Wind  
Wind Speed 2 mph (NNW)    
Max Wind Speed 9 mph    
Max Gust Speed -    
Visibility 10 miles    
Events      
Averages and records for this station are not official NWS values.
T = Trace of Precipitation, MM = Missing Value Source: NWS Daily Summary

Daily Weather History Graph

Daily Weather History Graph

Search for Another Location

Airport or City:

Astronomy

Nov. 04, 2012 Rise Set
Actual Time 6:39 AM EST 5:06 PM EST
Civil Twilight 6:12 AM EST 5:34 PM EST
Nautical Twilight 5:40 AM EST 6:05 PM EST
Astronomical Twilight 5:09 AM EST 6:36 PM EST
Moon 9:43 PM EST (11/4) 11:21 AM EST (11/4)
Length of Visible Light 11h 21m
Length of Day
10h 26m
Waning Gibbous, 72% of the Moon is Illuminated
Nov 4
Waning Gibbous
Nov 6
Last Quarter
Nov 13
New
Nov 20
First Quarter
Nov 28
Full

Hourly Weather History & Observations

Time (EST) Temp. Windchill Dew Point Humidity Pressure Visibility Wind Dir Wind Speed Gust Speed Precip Events Conditions
12:15 AM 38.8 °F - -6.0 °F 15% 30.13 in 10.0 mi Calm Calm - N/A   Clear
12:35 AM 37.0 °F - -0.0 °F 21% 30.13 in 10.0 mi Calm Calm - N/A   Clear
12:55 AM 34.3 °F - 6.8 °F 32% 30.14 in 10.0 mi Calm Calm - N/A   Clear
1:15 AM 35.2 °F - 3.2 °F 26% 30.14 in 10.0 mi Calm Calm - N/A   Clear
1:35 AM 32.5 °F 29.3 °F 6.6 °F 34% 30.13 in 10.0 mi West 3.5 mph - N/A   Mostly Cloudy
1:55 AM 35.2 °F - 5.9 °F 29% 30.13 in 10.0 mi Calm Calm - N/A   Overcast
1:15 AM 33.8 °F - - N/A% 30.13 in 10.0 mi Calm Calm - N/A   Overcast
1:35 AM 35.8 °F - - N/A% 30.12 in 10.0 mi Calm Calm - N/A   Overcast
1:55 AM 36.0 °F - - N/A% 30.12 in 10.0 mi Calm Calm - N/A   Overcast
2:15 AM 37.8 °F - - N/A% 30.12 in 10.0 mi Calm Calm - N/A   Overcast
2:35 AM 36.7 °F 34.1 °F - N/A% 30.11 in 10.0 mi NNW 3.5 mph - N/A   Overcast
2:55 AM 37.9 °F 35.5 °F - N/A% 30.11 in 10.0 mi North 3.5 mph - N/A   Mostly Cloudy
3:15 AM 36.3 °F - - N/A% 30.11 in 10.0 mi Calm Calm - N/A   Mostly Cloudy
3:35 AM 37.8 °F 35.3 °F - N/A% 30.10 in 10.0 mi North 3.5 mph - N/A   Overcast
3:55 AM 38.5 °F 36.1 °F 24.4 °F 57% 30.10 in 10.0 mi North 3.5 mph - N/A   Overcast
4:15 AM 36.9 °F - - N/A% 30.11 in 10.0 mi Calm Calm - N/A   Overcast
4:35 AM 38.5 °F - 12.0 °F 34% 30.11 in 10.0 mi Calm Calm - N/A   Overcast
4:55 AM 38.5 °F - 11.1 °F 33% 30.11 in 10.0 mi Calm Calm - N/A   Overcast
5:15 AM 37.4 °F - - N/A% 30.12 in 10.0 mi Calm Calm - N/A   Overcast
5:35 AM 37.8 °F - - N/A% 30.13 in 10.0 mi Calm Calm - N/A   Mostly Cloudy
5:55 AM 35.8 °F 33.0 °F - N/A% 30.12 in 10.0 mi NW 3.5 mph - N/A   Scattered Clouds
6:15 AM 35.6 °F - - N/A% 30.13 in 10.0 mi Calm Calm - N/A   Mostly Cloudy
6:35 AM 36.5 °F 33.9 °F - N/A% 30.13 in 10.0 mi NNW 3.5 mph - N/A   Overcast
6:55 AM 37.4 °F - - N/A% 30.13 in 10.0 mi Calm Calm - N/A   Overcast
7:15 AM 38.3 °F - - N/A% 30.14 in 10.0 mi Calm Calm - N/A   Overcast
7:35 AM 39.6 °F - 16.3 °F 39% 30.14 in 10.0 mi Calm Calm - N/A   Overcast
7:55 AM 40.1 °F - 16.2 °F 38% 30.15 in 10.0 mi Calm Calm - N/A   Overcast
8:15 AM 40.8 °F - 5.7 °F 23% 30.15 in 10.0 mi Calm Calm - N/A   Overcast
8:35 AM 41.9 °F - 1.2 °F 18% 30.15 in 10.0 mi Calm Calm - N/A   Overcast
8:55 AM 42.4 °F - -7.1 °F 12% 30.15 in 10.0 mi Calm Calm - N/A   Overcast
9:15 AM 43.2 °F - -16.8 °F 7% 30.14 in 10.0 mi Calm Calm - N/A   Overcast
9:35 AM 44.2 °F - -36.0 °F 4% 30.13 in 10.0 mi Calm Calm - N/A   Overcast
9:55 AM 44.6 °F 42.2 °F -38.7 °F 4% 30.13 in 10.0 mi NW 4.6 mph - N/A   Overcast
10:15 AM 45.3 °F 44.0 °F - N/A% 30.13 in 10.0 mi NNW 3.5 mph - N/A   Overcast
10:35 AM 46.2 °F 42.2 °F - N/A% 30.12 in 10.0 mi NNW 8.1 mph - N/A   Overcast
10:55 AM 47.1 °F - - N/A% 30.12 in 10.0 mi North 5.8 mph - N/A   Overcast
11:15 AM 46.9 °F - - N/A% 30.11 in 10.0 mi NW 8.1 mph - N/A   Overcast
11:35 AM 47.3 °F - - N/A% 30.11 in 10.0 mi NW 6.9 mph - N/A   Overcast
11:55 AM 48.4 °F - - N/A% 30.10 in 10.0 mi NNW 5.8 mph - N/A   Overcast
12:15 PM 48.7 °F - - N/A% 30.08 in 10.0 mi North 6.9 mph - N/A   Overcast
12:35 PM 50.0 °F - - N/A% 30.08 in 10.0 mi NNW 3.5 mph - N/A   Scattered Clouds
12:55 PM 50.5 °F - - N/A% 30.08 in 10.0 mi West 5.8 mph - N/A   Clear
1:15 PM 50.4 °F - - N/A% 30.07 in 10.0 mi Calm Calm - N/A   Clear
1:35 PM 51.3 °F - - N/A% 30.06 in 10.0 mi Calm Calm - N/A   Clear
1:55 PM 51.6 °F - - N/A% 30.05 in 10.0 mi NW 9.2 mph - N/A   Clear
2:15 PM 52.5 °F - - N/A% 30.05 in 10.0 mi NNW 8.1 mph - N/A   Clear
2:35 PM 52.3 °F - - N/A% 30.05 in 10.0 mi NW 3.5 mph - N/A   Clear
2:55 PM 52.5 °F - - N/A% 30.05 in 10.0 mi NW 6.9 mph - N/A   Clear
3:15 PM 52.5 °F - - N/A% 30.04 in 10.0 mi West 8.1 mph - N/A   Clear
3:35 PM 52.3 °F - - N/A% 30.05 in 10.0 mi NNW 5.8 mph - N/A   Clear
3:55 PM 52.3 °F - - N/A% 30.04 in 10.0 mi NW 9.2 mph - N/A   Clear
4:15 PM 51.4 °F - - N/A% 30.05 in 10.0 mi North 4.6 mph - N/A   Clear
4:35 PM 50.4 °F - - N/A% 30.05 in 10.0 mi NNW 4.6 mph - N/A   Clear
4:55 PM 49.1 °F - - N/A% 30.05 in 10.0 mi North 6.9 mph - N/A   Clear
5:15 PM 47.3 °F - - N/A% 30.05 in 10.0 mi North 5.8 mph - N/A   Clear
5:35 PM 46.0 °F 44.8 °F - N/A% 30.06 in 10.0 mi North 3.5 mph - N/A   Clear
5:55 PM 45.3 °F 44.0 °F - N/A% 30.06 in 10.0 mi North 3.5 mph - N/A   Clear
6:15 PM 40.3 °F 38.2 °F -3.5 °F 16% 30.07 in 10.0 mi North 3.5 mph - N/A   Clear
6:35 PM 44.6 °F 42.2 °F - N/A% 30.08 in 10.0 mi North 4.6 mph - N/A   Clear
6:55 PM 43.9 °F 39.9 °F - N/A% 30.08 in 10.0 mi North 6.9 mph - N/A   Clear
7:15 PM 42.8 °F 39.3 °F -33.2 °F 4% 30.09 in 10.0 mi North 5.8 mph - N/A   Clear
7:35 PM 42.8 °F 41.1 °F -34.4 °F 4% 30.09 in 10.0 mi North 3.5 mph - N/A   Clear
7:55 PM 42.4 °F 38.1 °F -40.4 °F 4% 30.09 in 10.0 mi North 6.9 mph - N/A   Clear
8:15 PM 41.9 °F 38.2 °F -32.8 °F 4% 30.10 in 10.0 mi NNW 5.8 mph - N/A   Clear
8:35 PM 40.8 °F 37.8 °F -22.4 °F 6% 30.10 in 10.0 mi NNW 4.6 mph - N/A   Clear
8:55 PM 39.9 °F 34.5 °F -16.8 °F 8% 30.10 in 10.0 mi NNW 8.1 mph - N/A   Clear
9:15 PM 40.6 °F 36.0 °F -27.2 °F 5% 30.10 in 10.0 mi North 6.9 mph - N/A   Scattered Clouds
9:35 PM 40.1 °F 38.0 °F -24.7 °F 6% 30.11 in 10.0 mi North 3.5 mph - N/A   Scattered Clouds
9:55 PM 38.3 °F 34.8 °F -10.5 °F 12% 30.11 in 10.0 mi NNW 4.6 mph - N/A   Clear
10:15 PM 37.8 °F 34.2 °F -9.0 °F 13% 30.11 in 10.0 mi NNW 4.6 mph - N/A   Clear
10:35 PM 34.9 °F 30.8 °F 0.7 °F 24% 30.11 in 10.0 mi NW 4.6 mph - N/A   Scattered Clouds
10:55 PM 34.7 °F 31.8 °F 3.6 °F 27% 30.12 in 10.0 mi NW 3.5 mph - N/A   Mostly Cloudy